Location: Goudex
(43.3760°N, 0.9543°E)
Time: 21:15:05
(UTC+00:00)

Lacrosse 5 rocket - Pass Details

Date: 20 November 2019
Orbit: 461 x 637 km, 57.0° (Epoch: 11 December)

Event Time Altitude Azimuth Distance (km) Brightness Sun altitude
Exits shadow 04:55:23 18° 8° (N) 1,227 3.1 -21.6°
Maximum altitude 04:56:08 19° 25° (NNE) 1,182 3.2 -21.5°
Drops below altitude 10° 04:58:44 10° 71° (ENE) 1,608 4.6 -21.0°
Sets 05:01:20 0° 91° (E) 2,483 6.2 -20.5°
